Location: Brown Observing Site
(43.4354°N, 116.3366°W)
Time: 09:59:26
(UTC-06:00)

N. Korean satellite - Visible Passes

Search period start: 21 March 2019 00:00
Search period end: 31 March 2019 00:00
Orbit: 456 x 510 km, 97.2° (Epoch: 20 March)

Date Brightness Start Highest point End Pass type
(mag) Time Alt. Az. Time Alt. Az. Time Alt. Az.
21 Mar 10.0 06:58:57 10° ENE 07:00:56 14° E 07:02:57 10° SE visible
25 Mar 10.1 06:53:26 10° ENE 06:55:02 12° E 06:56:38 10° ESE visible
29 Mar 10.4 06:48:07 10° ENE 06:49:05 11° E 06:50:03 10° ESE visible
